User: anonymous
Location: NJAA Observatory
(40.6819°N, 74.8979°W)
Time: 17:32:42
(UTC-04:00)
Language:

ATLAS CENTAUR R/B - Orbit

View from above orbital plane
View from above orbital plane
View from above satellite
View from above satellite

Ground track
Ground track

The orbit data is extracted from the following two-line orbital elements,

1 28385U 04034B   13353.77365362 0.00049500  00000-0  14549-2 0    07
2 28385  57.3783 333.5285 4188284 222.1923  96.6438  7.15578116    03
Epoch (UTC): 19 December 2013 18:34:03
Eccentricity: 0.4188284
inclination: 57.3783°
perigee height: 233 km
apogee height: 9761 km
right ascension of ascending node: 333.5285°
argument of perigee: 222.1923°
revolutions per day: 7.15578116
mean anomaly at epoch: 96.6438°
orbit number at epoch: 0

The dashed part of the orbit path shows where the satellite is in the earth's shadow,  

DLR